IN-0041 weather

HQ Eastern Air Command Helipad
Myliem, Meghalaya, India

Public forecast

Using degrees Celsius for public forecast. Weather courtesy of forecast.io.

METAR (pilot weather report)

Closest report is Lokpriya Gopinath Bordoloi International Airport, 36.5 nm (67.6 km) NNW. Retrieved 2019/08/20 08:30 UTC (21 minutes ago):

VEGT 200830Z 26007KT 5000 HZ SCT020 FEW025CB BKN100 35/27 Q1002 NOSIG

TAF (pilot weather forecast)

Forecast is more than 12 hours old.

Closest forecast is Lokpriya Gopinath Bordoloi International Airport, 36.5 nm (67.6 km) NNW. Retrieved 2016/03/24 00:45 UTC (3 years ago):

TAF VEGT 242300Z 2500/2606 00000KT 2000 BR FEW020 BECMG 2503/2506 05008KT 4000 HZ BECMG 2506/2509 5000 HZ BECMG 2512/2514 00000KT 4000 HZ FEW020 SCT100 BECMG 2515/2518 2500 HZ BECMG 2603/2606 05008KT 4000 HZ FEW020=